This demonstration page uses our WeatherBlox Daily Observations layout. Learn more.

Left ArrowRight Arrow

Hourly Observations for May 26, 2016

Temp ( °F °C ) Dew Point ( °F °C ) Humidity (%) Winds ( mph kmh ) Pressure ( in mb ) Visibility ( mi km ) Precip ( " mm )
12:33 am 00:33 Mostly Cloudy with Thunderstorms 72 22 68 20 88 88 NW 21 33 29.85 1011 4 6 0.00 0.00
12:54 am 00:54 Partly Cloudy with Thunderstorms 65 18.3 56 13.3 73 73 WNW 7 11 29.86 1011 10 16 0.14 3.56
1:13 am 01:13 Clear 65 18.3 55 12.8 70 70 Calm 29.85 1011 10 16 0.00 0.00
1:54 am 01:54 Clear 62 16.7 58 14.4 86 86 WSW 6 9 29.83 1010 10 16 0.00 0.00
2:54 am 02:54 Clear 62 16.7 55 12.8 78 78 NNW 5 7 29.80 1009 10 16 0.00 0.00
3:54 am 03:54 Clear 58 14.4 54 12.2 87 87 NNE 7 11 29.82 1010 10 16 0.00 0.00
4:54 am 04:54 Clear 59 15 55 12.8 87 87 Calm 29.85 1011 10 16 0.00 0.00
5:54 am 05:54 Clear 57 13.9 54 12.2 90 90 NW 3 6 29.86 1011 10 16 0.00 0.00
6:54 am 06:54 Sunny 59 15 56 13.3 90 90 NNW 5 7 29.88 1012 10 16 0.00 0.00
7:54 am 07:54 Sunny 64 17.8 58 14.4 81 81 Calm 29.87 1011 10 16 0.00 0.00
8:54 am 08:54 Mostly Sunny 68 20 59 15 73 73 SE 7 11 29.85 1011 10 16 0.00 0.00
9:54 am 09:54 Sunny 72 22.2 61 16.1 68 68 ENE 7 11 29.85 1011 10 16 0.00 0.00
10:54 am 10:54 Sunny 76 24.4 62 16.7 62 62 ESE 6 9 29.83 1010 10 16 0.00 0.00
11:54 am 11:54 Sunny 79 26.1 62 16.7 56 56 ENE 9 15 29.80 1009 10 16 0.00 0.00
12:54 pm 12:54 Sunny 82 27.8 63 17.2 53 53 E 12 19 29.80 1009 10 16 0.00 0.00
1:54 pm 13:54 Mostly Sunny 82 27.8 67 19.4 60 60 ENE 10 17 29.75 1007 10 16 0.00 0.00
2:19 pm 14:19 Partly Cloudy with Thunderstorms 79 26.1 65 18.3 62 62 ENE 14 22 29.68 1005 10 16 0.00 0.00
2:40 pm 14:40 Mostly Cloudy with Thunderstorms 76 24.4 67 19.4 74 74 E 6 9 29.71 1006 2 3 0.03 0.76
2:54 pm 14:54 Cloudy with Strong Thunderstorms 74 23.3 69 20.6 85 85 SSE 6 9 29.77 1008 2 3 0.12 3.05
3:42 pm 15:42 Cloudy with Thunderstorms 70 21 64 18 83 83 E 17 28 29.77 1008 5 8 0.00 0.00
3:54 pm 15:54 Cloudy with Strong Thunderstorms 66 18.9 62 16.7 87 87 E 10 17 29.78 1008 4 6 0.21 5.33
4:43 pm 16:43 Mostly Cloudy with Nearby Thunderstorms 64 17.8 62 16.7 93 93 SSE 26 43 29.71 1006 10 16 0.12 3.05
4:54 pm 16:54 Mostly Cloudy with Light Rain 68 20 60 15.6 76 76 ESE 22 35 29.68 1005 10 16 0.12 3.05
5:04 pm 17:04 Partly Cloudy 70 21 61 16 73 73 E 16 26 29.65 1004 10 16 0.00 0.00
5:12 pm 17:12 Partly Cloudy with Nearby Thunderstorms 70 21 61 16 73 73 ESE 16 26 29.68 1005 10 16 0.00 0.00
5:27 pm 17:27 Partly Cloudy 67 19.4 60 15.6 79 79 SE 25 41 29.74 1007 10 16 0.00 0.03
5:40 pm 17:40 Mostly Cloudy with Nearby Thunderstorms 66 19 61 16 83 83 SE 28 44 29.77 1008 10 16 0.00 0.00
5:54 pm 17:54 Mostly Cloudy with Nearby Thunderstorms 65 18.3 60 15.6 84 84 SE 29 46 29.81 1010 6 10 0.00 0.03
6:26 pm 18:26 Cloudy with Light Rain 64 18 57 14 78 78 ESE 14 22 29.80 1009 5 8 0.00 0.00
6:52 pm 18:52 Cloudy with Nearby Thunderstorms 64 18 61 16 88 88 WSW 7 11 29.85 1011 3 5 0.00 0.00
6:54 pm 18:54 Cloudy with Nearby Thunderstorms 63 17.2 60 15.6 90 90 WSW 6 9 29.85 1011 3 4 0.06 1.52
7:04 pm 19:04 Cloudy with Rain 63 17 61 16 94 94 WSW 5 7 29.85 1011 2 3 0.00 0.00
7:06 pm 19:06 Cloudy with Rain 63 17 61 16 94 94 W 5 7 29.85 1011 4 6 0.00 0.00
7:54 pm 19:54 Cloudy with Light Rain 63 17.2 60 15.6 90 90 NE 9 15 29.85 1011 4 6 0.11 2.79
8:54 pm 20:54 Clear 63 17.2 59 15 87 87 E 18 30 29.76 1008 10 16 0.02 0.51
9:54 pm 21:54 Clear 63 17.2 57 13.9 81 81 ESE 21 33 29.77 1008 10 16 0.00 0.00
10:54 pm 22:54 Clear 63 17.2 57 13.9 81 81 SE 21 33 29.79 1009 10 16 0.00 0.00
11:54 pm 23:54 Mostly Cloudy with Light Rain 63 17.2 56 13.3 78 78 S 16 26 29.81 1010 10 16 0.00 0.03

Powered by AerisWeather